(172579) = 2003 UC249

Discovered at Socorro on 2003-10-25 by LINEAR.

Orbit

Orbit type: Main Belt

Note: WebGL enabled browser required.

epoch2024-03-31.0
epoch JD2460400.5
perihelion date2020-08-06.91243
perihelion JD2459068.41243
argument of perihelion (°)62.52504
ascending node (°)218.33725
inclination (°)16.29583
eccentricity0.0460572
perihelion distance (AU)2.6071494
Tisserand w.r.t. Jupiter3.3
ΔV w.r.t. Earth (km/sec)11.3
semimajor axis (AU)2.7330249
mean anomaly (°)290.58369
mean daily motion (°/day)0.21814160
aphelion distance (AU)2.859
period (years)4.52
P-vector [x]0.16634015
P-vector [y]-0.97441921
P-vector [z]-0.15112302
Q-vector [x]0.97058598
Q-vector [y]0.13474252
Q-vector [z]0.19951768
absolute magnitude15.89
phase slope0.15
uncertainty0
referenceMPEC 2024-F14
observations used443
oppositions18
arc length (days)9818
first opposition used1997
last opposition used2024
residual rms (arc-secs)0.70
perturbers coarse indicatorM-v
perturbers precise indicator003Ek
first observation date used1997-04-30.0
last observation date used2024-03-17.0
computer nameMPCLINUX
JD of orbit computation2456700.408877
perihelion JD uncertainty (days)4.8094E-04
argument of perihelion uncertainty (°)1.0418E-04
ascending node uncertainty (°)1.5663E-05
inclination uncertainty (°)8.3471E-06
eccentricity uncertainty 3.8837E-08
perihelion distance uncertainty (AU)1.0398E-07
Minimum Orbit Intersection Distances (in AU)
for orbit epoch: 2460400.5, reference: E2024-G51
Mercury2.16536
Venus1.90629
Earth1.62722
Mars1.08891
Jupiter2.18282
Saturn6.25394
Uranus15.7503
Neptune27.0294

Observations

455 total observations over interval: 1997 04 30.24155 – 2024 03 17.589433
These data are available for download (format description).

Date (UT) J2000 RA J2000 Dec Magn Location Ref
1997 04 30.24155 14 43 32.29 -14 20 47.8 19.2   704 – Lincoln Laboratory ETS, New Mexico MPS 91119
1997 04 30.26414 14 43 31.22 -14 20 34.0 19.2   704 – Lincoln Laboratory ETS, New Mexico MPS 91119
1997 04 30.28654 14 43 30.05 -14 20 20.5 19.6   704 – Lincoln Laboratory ETS, New Mexico MPS 91119
1997 04 30.30909 14 43 28.68 -14 20 06.1 20.1   704 – Lincoln Laboratory ETS, New Mexico MPS 91119
1997 05 27.87775 14 24 03.51 -09 59 30.8 21.2 V 910 – Caussols-ODAS MPS 91119
1997 05 27.90341 14 24 02.70 -09 59 19.0 21.4 V 910 – Caussols-ODAS MPS 91119
1997 05 27.93510 14 24 01.69 -09 59 03.7 21.4 V 910 – Caussols-ODAS MPS 91119
2001 03 21.23144 10 45 14.82 -11 57 40.6 20.1 R 699 – Lowell Observatory-LONEOS MPS 91119
2001 03 21.25476 10 45 13.80 -11 57 29.1   699 – Lowell Observatory-LONEOS MPS 91119
2001 03 21.27817 10 45 12.75 -11 57 14.2   699 – Lowell Observatory-LONEOS MPS 91119
2001 03 21.30161 10 45 11.87 -11 57 01.0   699 – Lowell Observatory-LONEOS MPS 91119
2003 09 30.44816 01 53 05.13 +18 36 43.3 20.0 V 691 – Steward Observatory, Kitt Peak-Spacewatch MPS 90696
2003 09 30.47411 01 53 04.11 +18 36 31.3 20.4 V 691 – Steward Observatory, Kitt Peak-Spacewatch MPS 90696
2003 09 30.50056 01 53 03.08 +18 36 18.8 20.3 V 691 – Steward Observatory, Kitt Peak-Spacewatch MPS 90696
2003 10 17.20995 01 40 52.71 +16 04 52.0 20.0 V 691 – Steward Observatory, Kitt Peak-Spacewatch MPS 90696
2003 10 17.21268 01 40 52.58 +16 04 50.5 20.0 V 691 – Steward Observatory, Kitt Peak-Spacewatch MPS 90696
2003 10 17.24684 01 40 50.89 +16 04 29.7 19.8 V 691 – Steward Observatory, Kitt Peak-Spacewatch MPS 90696
2003 10 17.24942 01 40 50.78 +16 04 28.1 19.9 V 691 – Steward Observatory, Kitt Peak-Spacewatch MPS 90696
2003 10 17.27589 01 40 49.47 +16 04 12.2 19.8 V 691 – Steward Observatory, Kitt Peak-Spacewatch MPS 90696
2003 10 17.27854 01 40 49.36 +16 04 10.7 20.0 V 691 – Steward Observatory, Kitt Peak-Spacewatch MPS 90696
2003 10 25.26028 01 34 33.61 +14 41 21.1 19.3   704 – Lincoln Laboratory ETS, New Mexico MPS 89887
2003 10 25.27238 01 34 33.02 +14 41 14.1 19.6   704 – Lincoln Laboratory ETS, New Mexico MPS 89887
2003 10 25.28482 01 34 32.52 +14 41 06.4 20.1   704 – Lincoln Laboratory ETS, New Mexico MPS 89887
2003 10 25.29721 01 34 31.80 +14 40 58.5 19.8   704 – Lincoln Laboratory ETS, New Mexico MPS 89887
2003 10 25.30947 01 34 31.23 +14 40 50.1 20.1   704 – Lincoln Laboratory ETS, New Mexico MPS 89887
2003 10 28.25967 01 32 16.96 +14 09 43.5 19.3   704 – Lincoln Laboratory ETS, New Mexico MPS 89887
2003 10 28.28685 01 32 15.68 +14 09 26.5 19.8   704 – Lincoln Laboratory ETS, New Mexico MPS 89887
2003 10 28.29943 01 32 15.05 +14 09 18.2 19.7   704 – Lincoln Laboratory ETS, New Mexico MPS 89887
2003 10 28.31222 01 32 14.50 +14 09 09.9 19.7   704 – Lincoln Laboratory ETS, New Mexico MPS 89887
2003 10 30.23257 01 30 49.74 +13 48 57.2 19.8   704 – Lincoln Laboratory ETS, New Mexico MPS 90696
2003 10 30.24445 01 30 49.15 +13 48 50.5 19.7   704 – Lincoln Laboratory ETS, New Mexico MPS 90696
2003 10 30.27634 01 30 47.69 +13 48 30.1 20.0   704 – Lincoln Laboratory ETS, New Mexico MPS 90696
2003 11 02.24441 01 28 41.58 +13 17 30.9 20.1 V 691 – Steward Observatory, Kitt Peak-Spacewatch MPS 90696
2003 11 02.27265 01 28 40.33 +13 17 13.3 20.2 V 691 – Steward Observatory, Kitt Peak-Spacewatch MPS 90696
2003 11 02.30101 01 28 39.12 +13 16 55.7 20.4 V 691 – Steward Observatory, Kitt Peak-Spacewatch MPS 90696
2006 04 19.40571 14 32 43.25 -16 02 48.7 19.3 R 644 – Palomar Mountain/NEAT MPS 169163
2006 04 19.43125 14 32 42.01 -16 02 33.9 19.7 R 644 – Palomar Mountain/NEAT MPS 169163
2006 04 19.46212 14 32 40.62 -16 02 16.0 19.5 R 644 – Palomar Mountain/NEAT MPS 169163
2006 04 30.25274 14 24 17.81 -14 11 47.8 18.7 R 699 – Lowell Observatory-LONEOS MPS 175536
2006 04 30.28009 14 24 16.33 -14 11 33.6   699 – Lowell Observatory-LONEOS MPS 175536
2006 04 30.30751 14 24 14.92 -14 11 15.9   699 – Lowell Observatory-LONEOS MPS 175536
2006 04 30.33494 14 24 13.55 -14 10 59.4   699 – Lowell Observatory-LONEOS MPS 175536
2006 05 01.33861 14 23 26.12 -14 00 29.1 19.5 C 704 – Lincoln Laboratory ETS, New Mexico MPS 294289
2006 05 01.34886 14 23 25.62 -14 00 22.9 20.4 C 704 – Lincoln Laboratory ETS, New Mexico MPS 294289
2006 05 01.35913 14 23 25.08 -14 00 17.1 18.4 C 704 – Lincoln Laboratory ETS, New Mexico MPS 294289
2006 05 04.27082 14 21 08.96 -13 29 53.6 19.0 V G96 – Mt. Lemmon Survey MPS 170826
2006 05 04.27715 14 21 08.67 -13 29 49.2 19.2 V G96 – Mt. Lemmon Survey MPS 170826
2006 05 04.28336 14 21 08.35 -13 29 45.0 19.3 V G96 – Mt. Lemmon Survey MPS 170826
2006 05 04.28978 14 21 08.06 -13 29 41.2 19.0 V G96 – Mt. Lemmon Survey MPS 170826
2006 05 26.219126 14 07 03.308 -10 01 21.48 20.00 V 645 – Apache Point-Sloan Digital Sky Survey MPS 390132
2006 05 26.222598 14 07 03.203 -10 01 19.88 20.83   645 – Apache Point-Sloan Digital Sky Survey MPS 390132
2006 06 15.63668 14 02 33.76 -07 56 27.3 20.7 V D35 – Lulin Observatory MPS 173899
2006 06 15.65752 14 02 33.68 -07 56 23.8 20.9 V D35 – Lulin Observatory MPS 173899
2007 09 05.15409 21 45 13.01 +10 55 03.4 19.7 R 699 – Lowell Observatory-LONEOS MPS 214423
2007 09 05.17812 21 45 12.03 +10 54 50.2   699 – Lowell Observatory-LONEOS MPS 214423
2007 09 05.20173 21 45 11.04 +10 54 38.3   699 – Lowell Observatory-LONEOS MPS 214423
2007 09 05.22519 21 45 10.03 +10 54 25.1   699 – Lowell Observatory-LONEOS MPS 214423
2007 09 13.17455 21 40 20.85 +09 39 39.7 19.4 V 703 – Catalina Sky Survey MPS 215103
2007 09 13.17999 21 40 20.60 +09 39 37.4 20.1 V 703 – Catalina Sky Survey MPS 215103
2007 09 13.18541 21 40 20.38 +09 39 34.9 19.9 V 703 – Catalina Sky Survey MPS 215103
2007 09 13.19082 21 40 20.24 +09 39 30.4 20.3 V 703 – Catalina Sky Survey MPS 215103
2007 09 17.17138 21 38 21.61 +08 59 58.5 19.6   704 – Lincoln Laboratory ETS, New Mexico MPS 216167
2007 09 17.18360 21 38 21.27 +08 59 52.2 19.9   704 – Lincoln Laboratory ETS, New Mexico MPS 216167
2007 09 17.19581 21 38 20.91 +08 59 45.4 19.9   704 – Lincoln Laboratory ETS, New Mexico MPS 216167
2007 09 17.20803 21 38 20.51 +08 59 37.5 20.1   704 – Lincoln Laboratory ETS, New Mexico MPS 216167
2007 09 17.22050 21 38 20.16 +08 59 30.4 19.6   704 – Lincoln Laboratory ETS, New Mexico MPS 216167
2007 12 05.09630 22 12 41.54 +00 58 35.8 21.2 V G96 – Mt. Lemmon Survey MPS 229774
2007 12 05.10284 22 12 41.90 +00 58 35.8 20.3 V G96 – Mt. Lemmon Survey MPS 229774
2007 12 05.10943 22 12 42.37 +00 58 36.0 20.8 V G96 – Mt. Lemmon Survey MPS 229774
2007 12 05.11594 22 12 42.80 +00 58 36.0 20.9 V G96 – Mt. Lemmon Survey MPS 229774
2007 12 05.15036 22 12 45.18 +00 58 35.9 21.2 V G96 – Mt. Lemmon Survey MPS 229774
2007 12 05.15681 22 12 45.57 +00 58 35.4 20.8 V G96 – Mt. Lemmon Survey MPS 229774
2007 12 05.16340 22 12 46.00 +00 58 35.7 21.1 V G96 – Mt. Lemmon Survey MPS 229774
2007 12 05.16990 22 12 46.40 +00 58 35.3 20.8 V G96 – Mt. Lemmon Survey MPS 229774
2008 12 21.24228 04 33 45.50 +07 04 34.3 19.7 V 703 – Catalina Sky Survey MPS 269935
2008 12 21.24956 04 33 45.10 +07 04 32.7 20.1 V 703 – Catalina Sky Survey MPS 269935
2008 12 21.25683 04 33 44.71 +07 04 31.4 19.7 V 703 – Catalina Sky Survey MPS 269935
2008 12 21.26403 04 33 44.38 +07 04 30.9 20.6 V 703 – Catalina Sky Survey MPS 269935
2010 02 24.465282 10 49 36.005 -14 31 09.71 19.98 i F51 – Pan-STARRS 1, Haleakala MPS 320456
2010 02 24.476816 10 49 35.455 -14 31 05.85 19.92 i F51 – Pan-STARRS 1, Haleakala MPS 320456
2010 02 25.378928 10 48 53.751 -14 25 48.37 19.83 r F51 – Pan-STARRS 1, Haleakala MPS 320456
2010 02 25.380705 10 48 53.655 -14 25 47.69 19.76 r F51 – Pan-STARRS 1, Haleakala MPS 320456
2010 02 25.388212 10 48 53.302 -14 25 45.04 19.78 r F51 – Pan-STARRS 1, Haleakala MPS 320456
2010 02 25.390269 10 48 53.194 -14 25 44.30 20.03 r F51 – Pan-STARRS 1, Haleakala MPS 320456
2011 09 08.28123 17 51 49.318 -04 54 16.03 19.9 i F51 – Pan-STARRS 1, Haleakala MPS 390960
2011 09 08.29630 17 51 49.881 -04 54 20.40 20.2 i F51 – Pan-STARRS 1, Haleakala MPS 390960
2012 09 17.35744 01 42 42.06 +19 44 17.0 20.2 V 691 – Steward Observatory, Kitt Peak-Spacewatch MPS 432991
2012 09 17.37522 01 42 41.55 +19 44 11.4 20.0 V 691 – Steward Observatory, Kitt Peak-Spacewatch MPS 432991
